{"data":{"norad_id":60335,"intl_designator":"2024-136G","name":"STARLINK-32168","alt_names":[],"object_type":"PAYLOAD","status":"ACTIVE","operator":null,"country":"US","launch_date":"2024-08-02","launch_site_code":"AFETR","launch_vehicle":null,"mission":null,"orbit_class":"UNKNOWN","rcs_meters":null,"size_class":null,"mass_kg":null,"dimensions":null,"purposes":["comms"],"wikipedia_slug":null,"has_3d_model":false,"image_url":null,"decayed_at":null,"tle_current":{"epoch":"2026-09-21T03:38:06.894816Z","epoch_age_seconds":129315,"freshness":"FRESH","line1":"1 60335U 24136G   26264.15146869  .00013644  00000+0  41422-3 0  9996","line2":"2 60335  53.1587 246.8456 0001232  81.2991 278.8152 15.34398408119606","mean_motion":15.34398408,"eccentricity":0.0001232,"inclination_deg":53.1587,"raan_deg":246.8456,"arg_perigee_deg":81.2991,"mean_anomaly_deg":278.8152,"bstar":0.00041422,"rev_number":11960,"period_min":93.847855452155,"perigee_km":461.86517987015,"apogee_km":463.55076407124,"semimajor_km":6840.8449719707,"source":"CELESTRAK","updated_at":"2026-09-22T09:00:49.219942Z"}}}